Time,TemperatureF,DewpointF,PressureIn,WindDirection,WindDirectionDegrees,WindSpeedMPH,WindSpeedGustMPH,Humidity,HourlyPrecipIn,Conditions,Clouds,dailyrainin,SoftwareType,DateUTC
2013-02-13 00:00:00,37.0,29.1,29.31,West,270,1.0,17.0,73,0.00,,,0.00,Weather View 32 v70,2013-02-13 05:00:00,
2013-02-13 00:05:00,36.0,28.5,29.31,WSW,247,0.0,17.0,74,0.00,,,0.00,Weather View 32 v70,2013-02-13 05:05:00,
2013-02-13 00:10:00,36.0,28.5,29.31,NW,315,5.0,17.0,74,0.00,,,0.00,Weather View 32 v70,2013-02-13 05:10:00,
2013-02-13 00:15:00,36.0,28.5,29.30,NW,315,3.0,17.0,74,0.00,,,0.00,Weather View 32 v70,2013-02-13 05:15:00,
2013-02-13 00:20:00,36.0,28.5,29.30,WNW,292,6.0,15.0,74,0.00,,,0.00,Weather View 32 v70,2013-02-13 05:20:00,
2013-02-13 00:25:00,36.0,28.5,29.30,NW,315,4.0,13.0,74,0.00,,,0.00,Weather View 32 v70,2013-02-13 05:25:00,
2013-02-13 00:30:00,36.0,28.5,29.30,WNW,292,6.0,13.0,74,0.00,,,0.00,Weather View 32 v70,2013-02-13 05:30:00,
2013-02-13 00:35:00,36.0,28.5,29.29,West,270,2.0,10.0,74,0.00,,,0.00,Weather View 32 v70,2013-02-13 05:35:00,
2013-02-13 00:40:00,36.0,28.5,29.30,West,270,0.0,10.0,74,0.00,,,0.00,Weather View 32 v70,2013-02-13 05:40:00,
2013-02-13 00:45:00,35.0,27.5,29.29,West,270,0.0,10.0,74,0.00,,,0.00,Weather View 32 v70,2013-02-13 05:45:00,
2013-02-13 00:50:00,35.0,28.2,29.29,West,270,0.0,8.0,76,0.00,,,0.00,Weather View 32 v70,2013-02-13 05:50:00,
2013-02-13 00:55:00,35.0,28.5,29.29,West,270,1.0,8.0,77,0.00,,,0.00,Weather View 32 v70,2013-02-13 05:55:00,
2013-02-13 01:00:00,34.0,27.5,29.29,West,270,2.0,8.0,77,0.00,,,0.00,Weather View 32 v70,2013-02-13 06:00:00,
2013-02-13 01:05:00,34.0,28.2,29.27,NW,315,3.0,8.0,79,0.00,,,0.00,Weather View 32 v70,2013-02-13 06:05:00,
2013-02-13 01:10:00,34.0,28.2,29.28,NNW,337,0.0,8.0,79,0.00,,,0.00,Weather View 32 v70,2013-02-13 06:10:00,
2013-02-13 01:15:00,34.0,28.5,29.27,WNW,292,2.0,8.0,80,0.00,,,0.00,Weather View 32 v70,2013-02-13 06:15:00,
2013-02-13 01:20:00,34.0,28.5,29.27,WNW,292,3.0,8.0,80,0.00,,,0.00,Weather View 32 v70,2013-02-13 06:20:00,
2013-02-13 01:25:00,33.0,27.5,29.27,NNW,337,2.0,8.0,80,0.00,,,0.00,Weather View 32 v70,2013-02-13 06:25:00,
2013-02-13 01:30:00,33.0,28.1,29.25,NNW,337,6.0,8.0,82,0.00,,,0.00,Weather View 32 v70,2013-02-13 06:30:00,
2013-02-13 01:35:00,33.0,28.1,29.25,NE,45,3.0,7.0,82,0.00,,,0.00,Weather View 32 v70,2013-02-13 06:35:00,
2013-02-13 01:40:00,33.0,27.8,29.25,NE,45,0.0,7.0,81,0.00,,,0.00,Weather View 32 v70,2013-02-13 06:40:00,
2013-02-13 01:45:00,32.0,27.4,29.25,WNW,292,2.0,7.0,83,0.00,,,0.00,Weather View 32 v70,2013-02-13 06:45:00,
2013-02-13 01:50:00,32.0,28.0,29.25,WNW,292,1.0,7.0,85,0.00,,,0.00,Weather View 32 v70,2013-02-13 06:50:00,
2013-02-13 01:55:00,32.0,28.0,29.25,SW,225,0.0,7.0,85,0.00,,,0.00,Weather View 32 v70,2013-02-13 06:55:00,
2013-02-13 02:00:00,31.0,28.4,29.25,SSE,157,3.0,7.0,90,0.00,,,0.00,Weather View 32 v70,2013-02-13 07:00:00,
2013-02-13 02:05:00,31.0,28.4,29.22,SE,135,0.0,7.0,90,0.00,,,0.00,Weather View 32 v70,2013-02-13 07:05:00,
2013-02-13 02:10:00,30.0,27.2,29.25,SE,135,0.0,7.0,89,0.00,,,0.00,Weather View 32 v70,2013-02-13 07:10:00,
2013-02-13 02:15:00,30.0,27.2,29.24,SE,135,3.0,7.0,89,0.00,,,0.00,Weather View 32 v70,2013-02-13 07:15:00,
2013-02-13 02:20:00,30.0,27.7,29.24,SSW,202,5.0,7.0,91,0.00,,,0.00,Weather View 32 v70,2013-02-13 07:20:00,
2013-02-13 02:25:00,30.0,28.0,29.25,SSW,202,1.0,7.0,92,0.00,,,0.00,Weather View 32 v70,2013-02-13 07:25:00,
2013-02-13 02:30:00,29.0,27.5,29.24,NNE,22,1.0,7.0,94,0.00,,,0.00,Weather View 32 v70,2013-02-13 07:30:00,
2013-02-13 02:35:00,29.0,27.2,29.24,ESE,112,1.0,6.0,93,0.00,,,0.00,Weather View 32 v70,2013-02-13 07:35:00,
2013-02-13 02:40:00,29.0,27.0,29.24,ESE,112,0.0,6.0,92,0.00,,,0.00,Weather View 32 v70,2013-02-13 07:40:00,
2013-02-13 02:45:00,28.0,26.0,29.24,NW,315,2.0,6.0,92,0.00,,,0.00,Weather View 32 v70,2013-02-13 07:45:00,
2013-02-13 02:50:00,28.0,26.5,29.23,NW,315,1.0,6.0,94,0.00,,,0.00,Weather View 32 v70,2013-02-13 07:50:00,
2013-02-13 02:55:00,28.0,26.8,29.23,NW,315,1.0,6.0,95,0.00,,,0.00,Weather View 32 v70,2013-02-13 07:55:00,
2013-02-13 03:00:00,27.0,25.8,29.23,West,270,0.0,6.0,95,0.00,,,0.00,Weather View 32 v70,2013-02-13 08:00:00,
2013-02-13 03:05:00,27.0,25.8,29.23,SSW,202,3.0,6.0,95,0.00,,,0.00,Weather View 32 v70,2013-02-13 08:05:00,
2013-02-13 03:10:00,28.0,27.0,29.23,SSE,157,2.0,6.0,96,0.00,,,0.00,Weather View 32 v70,2013-02-13 08:10:00,
2013-02-13 03:15:00,28.0,27.3,29.23,SSE,157,0.0,6.0,97,0.00,,,0.00,Weather View 32 v70,2013-02-13 08:15:00,
2013-02-13 03:20:00,27.0,26.3,29.23,SSE,157,0.0,6.0,97,0.00,,,0.00,Weather View 32 v70,2013-02-13 08:20:00,
2013-02-13 03:25:00,27.0,26.3,29.23,East,90,0.0,5.0,97,0.00,,,0.00,Weather View 32 v70,2013-02-13 08:25:00,
2013-02-13 03:30:00,27.0,26.5,29.23,East,90,0.0,5.0,98,0.00,,,0.00,Weather View 32 v70,2013-02-13 08:30:00,
2013-02-13 03:35:00,27.0,26.5,29.23,East,90,0.0,5.0,98,0.00,,,0.00,Weather View 32 v70,2013-02-13 08:35:00,
2013-02-13 03:40:00,26.0,25.8,29.23,East,90,0.0,5.0,99,0.00,,,0.00,Weather View 32 v70,2013-02-13 08:40:00,
2013-02-13 03:45:00,26.0,26.0,29.23,East,90,3.0,5.0,100,0.00,,,0.00,Weather View 32 v70,2013-02-13 08:45:00,
2013-02-13 03:50:00,27.0,27.0,29.23,ESE,112,0.0,6.0,100,0.00,,,0.00,Weather View 32 v70,2013-02-13 08:50:00,
2013-02-13 03:55:00,27.0,27.0,29.23,ESE,112,0.0,6.0,100,0.00,,,0.00,Weather View 32 v70,2013-02-13 08:55:00,
2013-02-13 04:00:00,27.0,26.8,29.24,ESE,112,0.0,6.0,99,0.00,,,0.00,Weather View 32 v70,2013-02-13 09:00:00,
2013-02-13 04:05:00,26.0,26.0,29.24,ESE,112,0.0,6.0,100,0.00,,,0.00,Weather View 32 v70,2013-02-13 09:05:00,
2013-02-13 04:10:00,26.0,26.0,29.24,ESE,112,0.0,6.0,100,0.00,,,0.00,Weather View 32 v70,2013-02-13 09:10:00,
2013-02-13 04:15:00,26.0,26.0,29.24,ESE,112,1.0,6.0,100,0.00,,,0.00,Weather View 32 v70,2013-02-13 09:15:00,
2013-02-13 04:20:00,26.0,26.0,29.25,ESE,112,0.0,6.0,100,0.00,,,0.00,Weather View 32 v70,2013-02-13 09:20:00,
2013-02-13 04:25:00,26.0,25.8,29.25,ESE,112,0.0,6.0,99,0.00,,,0.00,Weather View 32 v70,2013-02-13 09:25:00,
2013-02-13 04:30:00,26.0,26.0,29.25,North,360,1.0,6.0,100,0.00,,,0.00,Weather View 32 v70,2013-02-13 09:30:00,
2013-02-13 04:35:00,26.0,26.0,29.25,NE,45,3.0,6.0,100,0.00,,,0.00,Weather View 32 v70,2013-02-13 09:35:00,
2013-02-13 04:40:00,26.0,26.0,29.25,SW,225,0.0,6.0,100,0.00,,,0.00,Weather View 32 v70,2013-02-13 09:40:00,
2013-02-13 04:45:00,26.0,26.0,29.25,SW,225,0.0,6.0,100,0.00,,,0.00,Weather View 32 v70,2013-02-13 09:45:00,
2013-02-13 04:50:00,26.0,26.0,29.24,NNE,22,1.0,5.0,100,0.00,,,0.00,Weather View 32 v70,2013-02-13 09:50:00,
2013-02-13 04:55:00,26.0,26.0,29.25,SSW,202,4.0,5.0,100,0.00,,,0.00,Weather View 32 v70,2013-02-13 09:55:00,
2013-02-13 05:00:00,26.0,26.0,29.25,SSW,202,3.0,5.0,100,0.00,,,0.00,Weather View 32 v70,2013-02-13 10:00:00,
2013-02-13 05:05:00,26.0,26.0,29.22,SSW,202,0.0,5.0,100,0.00,,,0.00,Weather View 32 v70,2013-02-13 10:05:00,
2013-02-13 05:10:00,26.0,26.0,29.25,SSE,157,2.0,5.0,100,0.00,,,0.00,Weather View 32 v70,2013-02-13 10:10:00,
2013-02-13 05:15:00,26.0,26.0,29.25,South,180,4.0,5.0,100,0.00,,,0.00,Weather View 32 v70,2013-02-13 10:15:00,
2013-02-13 05:20:00,26.0,26.0,29.26,South,180,0.0,5.0,100,0.00,,,0.00,Weather View 32 v70,2013-02-13 10:20:00,
2013-02-13 05:25:00,26.0,26.0,29.26,South,180,1.0,5.0,100,0.00,,,0.00,Weather View 32 v70,2013-02-13 10:25:00,
2013-02-13 05:30:00,26.0,26.0,29.26,WNW,292,0.0,5.0,100,0.00,,,0.00,Weather View 32 v70,2013-02-13 10:30:00,
2013-02-13 05:35:00,25.0,25.0,29.26,WNW,292,0.0,5.0,100,0.00,,,0.00,Weather View 32 v70,2013-02-13 10:35:00,
2013-02-13 05:40:00,25.0,25.0,29.26,WNW,292,0.0,5.0,100,0.00,,,0.00,Weather View 32 v70,2013-02-13 10:40:00,
2013-02-13 05:45:00,25.0,25.0,29.26,WNW,292,0.0,5.0,100,0.00,,,0.00,Weather View 32 v70,2013-02-13 10:45:00,
2013-02-13 05:50:00,25.0,25.0,29.26,WNW,292,0.0,5.0,100,0.00,,,0.00,Weather View 32 v70,2013-02-13 10:50:00,
2013-02-13 05:55:00,25.0,25.0,29.26,WNW,292,0.0,5.0,100,0.00,,,0.00,Weather View 32 v70,2013-02-13 10:55:00,
2013-02-13 06:00:00,25.0,25.0,29.25,WNW,292,0.0,5.0,100,0.00,,,0.00,Weather View 32 v70,2013-02-13 11:00:00,
2013-02-13 06:05:00,25.0,25.0,29.26,WNW,292,0.0,5.0,100,0.00,,,0.00,Weather View 32 v70,2013-02-13 11:05:00,
2013-02-13 06:10:00,25.0,25.0,29.26,WNW,292,0.0,5.0,100,0.00,,,0.00,Weather View 32 v70,2013-02-13 11:10:00,
2013-02-13 06:15:00,25.0,25.0,29.26,WNW,292,0.0,4.0,100,0.00,,,0.00,Weather View 32 v70,2013-02-13 11:15:00,
2013-02-13 06:20:00,25.0,25.0,29.26,WNW,292,0.0,3.0,100,0.00,,,0.00,Weather View 32 v70,2013-02-13 11:20:00,
2013-02-13 06:25:00,25.0,25.0,29.26,WNW,292,0.0,3.0,100,0.00,,,0.00,Weather View 32 v70,2013-02-13 11:25:00,
2013-02-13 06:30:00,25.0,25.0,29.27,WNW,292,0.0,1.0,100,0.00,,,0.00,Weather View 32 v70,2013-02-13 11:30:00,
2013-02-13 06:35:00,26.0,26.0,29.27,WNW,292,0.0,1.0,100,0.00,,,0.00,Weather View 32 v70,2013-02-13 11:35:00,
2013-02-13 06:40:00,26.0,26.0,29.27,WNW,292,0.0,1.0,100,0.00,,,0.00,Weather View 32 v70,2013-02-13 11:40:00,
2013-02-13 06:45:00,26.0,26.0,29.27,WNW,292,0.0,1.0,100,0.00,,,0.00,Weather View 32 v70,2013-02-13 11:45:00,
2013-02-13 06:50:00,26.0,26.0,29.28,WNW,292,2.0,2.0,100,0.00,,,0.00,Weather View 32 v70,2013-02-13 11:50:00,
2013-02-13 06:55:00,26.0,26.0,29.28,WNW,292,0.0,3.0,100,0.00,,,0.00,Weather View 32 v70,2013-02-13 11:55:00,
2013-02-13 07:00:00,26.0,26.0,29.27,WNW,292,1.0,3.0,100,0.00,,,0.00,Weather View 32 v70,2013-02-13 12:00:00,
2013-02-13 07:05:00,27.0,27.0,29.28,WNW,292,0.0,3.0,100,0.00,,,0.00,Weather View 32 v70,2013-02-13 12:05:00,
2013-02-13 07:10:00,27.0,27.0,29.28,WNW,292,0.0,3.0,100,0.00,,,0.00,Weather View 32 v70,2013-02-13 12:10:00,
2013-02-13 07:15:00,27.0,27.0,29.28,WNW,292,0.0,3.0,100,0.00,,,0.00,Weather View 32 v70,2013-02-13 12:15:00,
2013-02-13 07:20:00,27.0,27.0,29.28,WNW,292,2.0,3.0,100,0.00,,,0.00,Weather View 32 v70,2013-02-13 12:20:00,
2013-02-13 07:25:00,27.0,27.0,29.29,WNW,292,0.0,3.0,100,0.00,,,0.00,Weather View 32 v70,2013-02-13 12:25:00,
2013-02-13 07:30:00,28.0,28.0,29.29,WNW,292,0.0,3.0,100,0.00,,,0.00,Weather View 32 v70,2013-02-13 12:30:00,
2013-02-13 07:35:00,28.0,28.0,29.29,WNW,292,1.0,3.0,100,0.00,,,0.00,Weather View 32 v70,2013-02-13 12:35:00,
2013-02-13 07:40:00,28.0,28.0,29.29,WNW,292,0.0,3.0,100,0.00,,,0.00,Weather View 32 v70,2013-02-13 12:40:00,
2013-02-13 07:45:00,29.0,29.0,29.30,WNW,292,0.0,3.0,100,0.00,,,0.00,Weather View 32 v70,2013-02-13 12:45:00,
2013-02-13 07:50:00,29.0,29.0,29.30,WSW,247,2.0,3.0,100,0.00,,,0.00,Weather View 32 v70,2013-02-13 12:50:00,
2013-02-13 07:55:00,29.0,29.0,29.30,SW,225,0.0,3.0,100,0.00,,,0.00,Weather View 32 v70,2013-02-13 12:55:00,
2013-02-13 08:00:00,29.0,29.0,29.31,SW,225,1.0,3.0,100,0.00,,,0.00,Weather View 32 v70,2013-02-13 13:00:00,
2013-02-13 08:05:00,30.0,30.0,29.31,SW,225,0.0,3.0,100,0.00,,,0.00,Weather View 32 v70,2013-02-13 13:05:00,
2013-02-13 08:10:00,30.0,30.0,29.31,West,270,0.0,3.0,100,0.00,,,0.00,Weather View 32 v70,2013-02-13 13:10:00,
2013-02-13 08:15:00,30.0,30.0,29.31,West,270,3.0,3.0,100,0.00,,,0.00,Weather View 32 v70,2013-02-13 13:15:00,
2013-02-13 08:20:00,31.0,31.0,29.32,WNW,292,0.0,3.0,100,0.00,,,0.00,Weather View 32 v70,2013-02-13 13:20:00,
2013-02-13 08:25:00,31.0,30.5,29.32,NW,315,3.0,6.0,98,0.00,,,0.00,Weather View 32 v70,2013-02-13 13:25:00,
2013-02-13 08:30:00,32.0,29.7,29.33,North,360,1.0,6.0,91,0.00,,,0.00,Weather View 32 v70,2013-02-13 13:30:00,
2013-02-13 08:35:00,33.0,30.7,29.30,NW,315,1.0,6.0,91,0.00,,,0.00,Weather View 32 v70,2013-02-13 13:35:00,
2013-02-13 08:40:00,34.0,31.1,29.34,South,180,0.0,6.0,89,0.00,,,0.00,Weather View 32 v70,2013-02-13 13:40:00,
2013-02-13 08:45:00,34.0,29.1,29.34,NW,315,7.0,8.0,82,0.00,,,0.00,Weather View 32 v70,2013-02-13 13:45:00,
2013-02-13 08:50:00,35.0,28.8,29.35,WNW,292,7.0,8.0,78,0.00,,,0.00,Weather View 32 v70,2013-02-13 13:50:00,
2013-02-13 08:55:00,35.0,28.8,29.36,West,270,1.0,8.0,78,0.00,,,0.00,Weather View 32 v70,2013-02-13 13:55:00,
2013-02-13 09:00:00,36.0,27.5,29.37,WNW,292,6.0,8.0,71,0.00,,,0.00,Weather View 32 v70,2013-02-13 14:00:00,
2013-02-13 09:05:00,36.0,27.2,29.38,NW,315,3.0,10.0,70,0.00,,,0.00,Weather View 32 v70,2013-02-13 14:05:00,
2013-02-13 09:10:00,36.0,26.5,29.38,West,270,7.0,10.0,68,0.00,,,0.00,Weather View 32 v70,2013-02-13 14:10:00,
2013-02-13 09:15:00,36.0,26.1,29.39,NW,315,7.0,12.0,67,0.00,,,0.00,Weather View 32 v70,2013-02-13 14:15:00,
2013-02-13 09:20:00,36.0,25.7,29.39,West,270,7.0,13.0,66,0.00,,,0.00,Weather View 32 v70,2013-02-13 14:20:00,
2013-02-13 09:25:00,36.0,25.4,29.39,North,360,10.0,13.0,65,0.00,,,0.00,Weather View 32 v70,2013-02-13 14:25:00,
2013-02-13 09:30:00,37.0,26.3,29.39,North,360,7.0,13.0,65,0.00,,,0.00,Weather View 32 v70,2013-02-13 14:30:00,
2013-02-13 09:35:00,37.0,25.2,29.39,NNW,337,9.0,13.0,62,0.00,,,0.00,Weather View 32 v70,2013-02-13 14:35:00,
2013-02-13 09:40:00,37.0,25.6,29.40,NW,315,8.0,13.0,63,0.00,,,0.00,Weather View 32 v70,2013-02-13 14:40:00,
2013-02-13 09:45:00,38.0,26.1,29.40,NW,315,7.0,13.0,62,0.00,,,0.00,Weather View 32 v70,2013-02-13 14:45:00,
2013-02-13 09:50:00,39.0,26.3,29.40,SW,225,2.0,13.0,60,0.00,,,0.00,Weather View 32 v70,2013-02-13 14:50:00,
2013-02-13 09:55:00,38.0,25.3,29.41,NW,315,2.0,17.0,60,0.00,,,0.00,Weather View 32 v70,2013-02-13 14:55:00,
2013-02-13 10:00:00,39.0,25.0,29.41,West,270,8.0,17.0,57,0.00,,,0.00,Weather View 32 v70,2013-02-13 15:00:00,
2013-02-13 10:05:00,39.0,25.0,29.41,NNW,337,2.0,17.0,57,0.00,,,0.00,Weather View 32 v70,2013-02-13 15:05:00,
2013-02-13 10:10:00,38.0,24.1,29.41,WNW,292,6.0,17.0,57,0.00,,,0.00,Weather View 32 v70,2013-02-13 15:10:00,
2013-02-13 10:15:00,39.0,25.9,29.41,WNW,292,5.0,17.0,59,0.00,,,0.00,Weather View 32 v70,2013-02-13 15:15:00,
2013-02-13 10:20:00,39.0,25.0,29.41,NNW,337,6.0,17.0,57,0.00,,,0.00,Weather View 32 v70,2013-02-13 15:20:00,
2013-02-13 10:25:00,39.0,24.6,29.41,West,270,7.0,17.0,56,0.00,,,0.00,Weather View 32 v70,2013-02-13 15:25:00,
2013-02-13 10:30:00,39.0,24.6,29.41,WNW,292,7.0,17.0,56,0.00,,,0.00,Weather View 32 v70,2013-02-13 15:30:00,
2013-02-13 10:35:00,39.0,25.0,29.41,NW,315,9.0,17.0,57,0.00,,,0.00,Weather View 32 v70,2013-02-13 15:35:00,
2013-02-13 10:40:00,39.0,24.6,29.41,NW,315,7.0,17.0,56,0.00,,,0.00,Weather View 32 v70,2013-02-13 15:40:00,
2013-02-13 10:45:00,39.0,24.6,29.41,North,360,2.0,17.0,56,0.00,,,0.00,Weather View 32 v70,2013-02-13 15:45:00,
2013-02-13 10:50:00,39.0,24.6,29.41,NW,315,4.0,17.0,56,0.00,,,0.00,Weather View 32 v70,2013-02-13 15:50:00,
2013-02-13 10:55:00,38.0,24.1,29.41,NNE,22,7.0,16.0,57,0.00,,,0.00,Weather View 32 v70,2013-02-13 15:55:00,
2013-02-13 11:00:00,39.0,24.6,29.41,North,360,6.0,16.0,56,0.00,,,0.00,Weather View 32 v70,2013-02-13 16:00:00,
2013-02-13 11:05:00,39.0,24.2,29.40,WNW,292,10.0,16.0,55,0.00,,,0.00,Weather View 32 v70,2013-02-13 16:05:00,
2013-02-13 11:10:00,39.0,24.2,29.41,WNW,292,6.0,16.0,55,0.00,,,0.00,Weather View 32 v70,2013-02-13 16:10:00,
2013-02-13 11:15:00,40.0,23.8,29.40,NE,45,7.0,16.0,52,0.00,,,0.00,Weather View 32 v70,2013-02-13 16:15:00,
2013-02-13 11:20:00,40.0,24.2,29.39,WNW,292,10.0,16.0,53,0.00,,,0.00,Weather View 32 v70,2013-02-13 16:20:00,
2013-02-13 11:25:00,40.0,23.3,29.40,NE,45,1.0,16.0,51,0.00,,,0.00,Weather View 32 v70,2013-02-13 16:25:00,
2013-02-13 11:30:00,40.0,23.8,29.40,NW,315,8.0,16.0,52,0.00,,,0.00,Weather View 32 v70,2013-02-13 16:30:00,
2013-02-13 11:35:00,40.0,24.2,29.40,WNW,292,6.0,16.0,53,0.00,,,0.00,Weather View 32 v70,2013-02-13 16:35:00,
2013-02-13 11:40:00,41.0,23.3,29.40,NW,315,7.0,16.0,49,0.00,,,0.00,Weather View 32 v70,2013-02-13 16:40:00,
2013-02-13 11:45:00,42.0,23.7,29.40,ESE,112,0.0,16.0,48,0.00,,,0.00,Weather View 32 v70,2013-02-13 16:45:00,
2013-02-13 11:50:00,41.0,23.3,29.40,NW,315,13.0,16.0,49,0.00,,,0.00,Weather View 32 v70,2013-02-13 16:50:00,
2013-02-13 11:55:00,41.0,23.8,29.40,NNW,337,10.0,16.0,50,0.00,,,0.00,Weather View 32 v70,2013-02-13 16:55:00,
2013-02-13 12:00:00,41.0,22.8,29.40,NNW,337,8.0,16.0,48,0.00,,,0.00,Weather View 32 v70,2013-02-13 17:00:00,
2013-02-13 12:05:00,42.0,23.2,29.40,NW,315,8.0,16.0,47,0.00,,,0.00,Weather View 32 v70,2013-02-13 17:05:00,
2013-02-13 12:10:00,42.0,24.2,29.40,WNW,292,5.0,14.0,49,0.00,,,0.00,Weather View 32 v70,2013-02-13 17:10:00,
2013-02-13 12:15:00,42.0,23.2,29.40,WNW,292,3.0,14.0,47,0.00,,,0.00,Weather View 32 v70,2013-02-13 17:15:00,
2013-02-13 12:20:00,41.0,21.8,29.41,NW,315,13.0,14.0,46,0.00,,,0.00,Weather View 32 v70,2013-02-13 17:20:00,
2013-02-13 12:25:00,41.0,23.3,29.42,WNW,292,7.0,14.0,49,0.00,,,0.00,Weather View 32 v70,2013-02-13 17:25:00,
2013-02-13 12:30:00,42.0,24.7,29.41,NW,315,10.0,14.0,50,0.00,,,0.00,Weather View 32 v70,2013-02-13 17:30:00,
2013-02-13 12:35:00,40.0,22.4,29.41,West,270,7.0,14.0,49,0.00,,,0.00,Weather View 32 v70,2013-02-13 17:35:00,
2013-02-13 12:40:00,40.0,23.8,29.40,West,270,3.0,14.0,52,0.00,,,0.00,Weather View 32 v70,2013-02-13 17:40:00,
2013-02-13 12:45:00,40.0,22.8,29.39,WNW,292,5.0,14.0,50,0.00,,,0.00,Weather View 32 v70,2013-02-13 17:45:00,
2013-02-13 12:50:00,41.0,23.8,29.39,SSW,202,3.0,14.0,50,0.00,,,0.00,Weather View 32 v70,2013-02-13 17:50:00,
2013-02-13 12:55:00,40.0,22.8,29.39,NW,315,6.0,14.0,50,0.00,,,0.00,Weather View 32 v70,2013-02-13 17:55:00,
2013-02-13 13:00:00,41.0,24.7,29.39,NW,315,9.0,14.0,52,0.00,,,0.00,Weather View 32 v70,2013-02-13 18:00:00,
2013-02-13 13:05:00,40.0,23.3,29.39,NNW,337,7.0,14.0,51,0.00,,,0.00,Weather View 32 v70,2013-02-13 18:05:00,
2013-02-13 13:10:00,40.0,22.4,29.38,NNW,337,6.0,14.0,49,0.00,,,0.00,Weather View 32 v70,2013-02-13 18:10:00,
2013-02-13 13:15:00,40.0,22.8,29.38,NW,315,8.0,14.0,50,0.00,,,0.00,Weather View 32 v70,2013-02-13 18:15:00,
2013-02-13 13:20:00,41.0,23.3,29.38,SSE,157,2.0,14.0,49,0.00,,,0.00,Weather View 32 v70,2013-02-13 18:20:00,
2013-02-13 13:25:00,41.0,23.3,29.38,WSW,247,4.0,13.0,49,0.00,,,0.00,Weather View 32 v70,2013-02-13 18:25:00,
2013-02-13 13:30:00,41.0,22.3,29.38,NNW,337,3.0,13.0,47,0.00,,,0.00,Weather View 32 v70,2013-02-13 18:30:00,
2013-02-13 13:35:00,42.0,23.7,29.38,NNE,22,4.0,13.0,48,0.00,,,0.00,Weather View 32 v70,2013-02-13 18:35:00,
2013-02-13 13:41:00,42.0,23.2,29.40,NW,315,8.0,13.0,47,0.00,,,0.00,Weather View 32 v70,2013-02-13 18:41:00,
2013-02-13 13:46:00,42.0,23.2,29.39,NNE,22,4.0,13.0,47,0.00,,,0.00,Weather View 32 v70,2013-02-13 18:46:00,
2013-02-13 13:51:00,41.0,22.3,29.40,NW,315,10.0,13.0,47,0.00,,,0.00,Weather View 32 v70,2013-02-13 18:51:00,
2013-02-13 13:56:00,40.0,21.4,29.39,NNW,337,7.0,14.0,47,0.00,,,0.00,Weather View 32 v70,2013-02-13 18:56:00,
2013-02-13 14:01:00,41.0,22.8,29.39,SSE,157,3.0,14.0,48,0.00,,,0.00,Weather View 32 v70,2013-02-13 19:01:00,
2013-02-13 14:06:00,41.0,23.3,29.39,North,360,7.0,15.0,49,0.00,,,0.00,Weather View 32 v70,2013-02-13 19:06:00,
2013-02-13 14:11:00,41.0,23.8,29.39,NNW,337,9.0,15.0,50,0.00,,,0.00,Weather View 32 v70,2013-02-13 19:11:00,
2013-02-13 14:16:00,41.0,23.3,29.39,NW,315,7.0,15.0,49,0.00,,,0.00,Weather View 32 v70,2013-02-13 19:16:00,
2013-02-13 14:21:00,40.0,21.9,29.40,NNW,337,10.0,15.0,48,0.00,,,0.00,Weather View 32 v70,2013-02-13 19:21:00,
2013-02-13 14:26:00,40.0,21.9,29.40,NNE,22,3.0,15.0,48,0.00,,,0.00,Weather View 32 v70,2013-02-13 19:26:00,
2013-02-13 14:31:00,41.0,22.3,29.40,North,360,7.0,15.0,47,0.00,,,0.00,Weather View 32 v70,2013-02-13 19:31:00,
2013-02-13 14:36:00,41.0,22.3,29.40,East,90,3.0,15.0,47,0.00,,,0.00,Weather View 32 v70,2013-02-13 19:36:00,
2013-02-13 14:41:00,41.0,21.8,29.40,NW,315,10.0,15.0,46,0.00,,,0.00,Weather View 32 v70,2013-02-13 19:41:00,
2013-02-13 14:46:00,41.0,23.3,29.41,SSE,157,2.0,15.0,49,0.00,,,0.00,Weather View 32 v70,2013-02-13 19:46:00,
2013-02-13 14:51:00,40.0,22.4,29.39,NW,315,3.0,15.0,49,0.00,,,0.00,Weather View 32 v70,2013-02-13 19:51:00,
2013-02-13 14:56:00,40.0,21.9,29.39,NNW,337,6.0,15.0,48,0.00,,,0.00,Weather View 32 v70,2013-02-13 19:56:00,
2013-02-13 15:01:00,40.0,22.4,29.39,WNW,292,4.0,15.0,49,0.00,,,0.00,Weather View 32 v70,2013-02-13 20:01:00,
2013-02-13 15:06:00,40.0,22.4,29.38,North,360,6.0,14.0,49,0.00,,,0.00,Weather View 32 v70,2013-02-13 20:06:00,
2013-02-13 15:11:00,40.0,22.8,29.38,NW,315,6.0,14.0,50,0.00,,,0.00,Weather View 32 v70,2013-02-13 20:11:00,
2013-02-13 15:16:00,40.0,22.4,29.39,NW,315,6.0,14.0,49,0.00,,,0.00,Weather View 32 v70,2013-02-13 20:16:00,
2013-02-13 15:21:00,40.0,22.8,29.38,North,360,6.0,12.0,50,0.00,,,0.00,Weather View 32 v70,2013-02-13 20:21:00,
2013-02-13 15:26:00,40.0,22.8,29.37,NNW,337,3.0,12.0,50,0.00,,,0.00,Weather View 32 v70,2013-02-13 20:26:00,
2013-02-13 15:31:00,40.0,23.3,29.38,NW,315,3.0,12.0,51,0.00,,,0.00,Weather View 32 v70,2013-02-13 20:31:00,
2013-02-13 15:36:00,40.0,23.3,29.38,NNW,337,5.0,12.0,51,0.00,,,0.00,Weather View 32 v70,2013-02-13 20:36:00,
2013-02-13 15:41:00,40.0,23.3,29.37,NNW,337,0.0,12.0,51,0.00,,,0.00,Weather View 32 v70,2013-02-13 20:41:00,
2013-02-13 15:46:00,40.0,23.3,29.38,NNE,22,4.0,10.0,51,0.00,,,0.00,Weather View 32 v70,2013-02-13 20:46:00,
2013-02-13 15:51:00,40.0,23.3,29.39,North,360,3.0,10.0,51,0.00,,,0.00,Weather View 32 v70,2013-02-13 20:51:00,
2013-02-13 15:56:00,40.0,23.3,29.38,NNE,22,2.0,10.0,51,0.00,,,0.00,Weather View 32 v70,2013-02-13 20:56:00,
2013-02-13 16:01:00,39.0,22.4,29.39,NNE,22,3.0,10.0,51,0.00,,,0.00,Weather View 32 v70,2013-02-13 21:01:00,
2013-02-13 16:06:00,39.0,22.4,29.38,ENE,67,3.0,10.0,51,0.00,,,0.00,Weather View 32 v70,2013-02-13 21:06:00,
2013-02-13 16:11:00,39.0,22.4,29.38,NNE,22,8.0,10.0,51,0.00,,,0.00,Weather View 32 v70,2013-02-13 21:11:00,
2013-02-13 16:16:00,39.0,22.4,29.38,NNE,22,4.0,10.0,51,0.00,,,0.00,Weather View 32 v70,2013-02-13 21:16:00,
2013-02-13 16:21:00,39.0,22.8,29.38,NNW,337,1.0,10.0,52,0.00,,,0.00,Weather View 32 v70,2013-02-13 21:21:00,
2013-02-13 16:26:00,39.0,22.8,29.37,NNW,337,2.0,8.0,52,0.00,,,0.00,Weather View 32 v70,2013-02-13 21:26:00,
2013-02-13 16:31:00,39.0,22.8,29.36,WNW,292,3.0,8.0,52,0.00,,,0.00,Weather View 32 v70,2013-02-13 21:31:00,
2013-02-13 16:36:00,39.0,23.3,29.36,WNW,292,1.0,8.0,53,0.00,,,0.00,Weather View 32 v70,2013-02-13 21:36:00,
2013-02-13 16:41:00,39.0,23.3,29.36,NW,315,1.0,8.0,53,0.00,,,0.00,Weather View 32 v70,2013-02-13 21:41:00,
2013-02-13 16:46:00,39.0,23.7,29.36,NW,315,0.0,8.0,54,0.00,,,0.00,Weather View 32 v70,2013-02-13 21:46:00,
2013-02-13 16:51:00,38.0,23.2,29.36,NW,315,0.0,8.0,55,0.00,,,0.00,Weather View 32 v70,2013-02-13 21:51:00,
2013-02-13 16:56:00,38.0,23.7,29.35,NW,315,3.0,8.0,56,0.00,,,0.00,Weather View 32 v70,2013-02-13 21:56:00,
2013-02-13 17:01:00,38.0,24.1,29.33,NW,315,1.0,8.0,57,0.00,,,0.00,Weather View 32 v70,2013-02-13 22:01:00,
2013-02-13 17:06:00,38.0,24.1,29.35,NW,315,2.0,8.0,57,0.00,,,0.00,Weather View 32 v70,2013-02-13 22:06:00,
2013-02-13 17:11:00,38.0,24.5,29.36,NW,315,2.0,8.0,58,0.00,,,0.00,Weather View 32 v70,2013-02-13 22:11:00,
2013-02-13 17:16:00,37.0,24.0,29.36,NW,315,0.0,4.0,59,0.00,,,0.00,Weather View 32 v70,2013-02-13 22:16:00,
2013-02-13 17:21:00,37.0,23.6,29.36,NW,315,1.0,4.0,58,0.00,,,0.00,Weather View 32 v70,2013-02-13 22:21:00,
2013-02-13 17:26:00,37.0,25.9,29.36,WSW,247,1.0,4.0,64,0.00,,,0.00,Weather View 32 v70,2013-02-13 22:26:00,
2013-02-13 17:31:00,37.0,26.7,29.35,WSW,247,0.0,4.0,66,0.00,,,0.00,Weather View 32 v70,2013-02-13 22:31:00,
2013-02-13 17:36:00,36.0,25.7,29.35,WSW,247,0.0,4.0,66,0.00,,,0.00,Weather View 32 v70,2013-02-13 22:36:00,
2013-02-13 17:41:00,36.0,26.1,29.35,WSW,247,0.0,4.0,67,0.00,,,0.00,Weather View 32 v70,2013-02-13 22:41:00,
2013-02-13 17:46:00,36.0,27.2,29.35,SSW,202,2.0,4.0,70,0.00,,,0.00,Weather View 32 v70,2013-02-13 22:46:00,
2013-02-13 17:51:00,35.0,26.2,29.34,SSW,202,0.0,4.0,70,0.00,,,0.00,Weather View 32 v70,2013-02-13 22:51:00,
2013-02-13 17:56:00,35.0,26.2,29.34,SSW,202,2.0,4.0,70,0.00,,,0.00,Weather View 32 v70,2013-02-13 22:56:00,
2013-02-13 18:01:00,35.0,26.5,29.34,SSW,202,1.0,4.0,71,0.00,,,0.00,Weather View 32 v70,2013-02-13 23:01:00,
2013-02-13 18:06:00,35.0,26.9,29.33,SSW,202,1.0,4.0,72,0.00,,,0.00,Weather View 32 v70,2013-02-13 23:06:00,
2013-02-13 18:11:00,34.0,26.3,29.33,SSW,202,0.0,4.0,73,0.00,,,0.00,Weather View 32 v70,2013-02-13 23:11:00,
2013-02-13 18:16:00,34.0,26.9,29.33,SSW,202,0.0,4.0,75,0.00,,,0.00,Weather View 32 v70,2013-02-13 23:16:00,
2013-02-13 18:21:00,34.0,27.2,29.33,SSW,202,1.0,4.0,76,0.00,,,0.00,Weather View 32 v70,2013-02-13 23:21:00,
2013-02-13 18:26:00,34.0,27.2,29.33,SSW,202,2.0,4.0,76,0.00,,,0.00,Weather View 32 v70,2013-02-13 23:26:00,
2013-02-13 18:31:00,34.0,27.2,29.30,SSW,202,1.0,4.0,76,0.00,,,0.00,Weather View 32 v70,2013-02-13 23:31:00,
2013-02-13 18:36:00,34.0,27.2,29.33,SSW,202,1.0,4.0,76,0.00,,,0.00,Weather View 32 v70,2013-02-13 23:36:00,
2013-02-13 18:41:00,34.0,27.5,29.33,SSW,202,0.0,4.0,77,0.00,,,0.00,Weather View 32 v70,2013-02-13 23:41:00,
2013-02-13 18:46:00,34.0,27.5,29.33,SSW,202,3.0,4.0,77,0.00,,,0.00,Weather View 32 v70,2013-02-13 23:46:00,
2013-02-13 18:51:00,34.0,27.9,29.33,South,180,4.0,5.0,78,0.00,,,0.00,Weather View 32 v70,2013-02-13 23:51:00,
2013-02-13 18:56:00,33.0,27.2,29.34,South,180,2.0,5.0,79,0.00,,,0.00,Weather View 32 v70,2013-02-13 23:56:00,
2013-02-13 19:01:00,33.0,27.5,29.35,SSW,202,5.0,5.0,80,0.00,,,0.00,Weather View 32 v70,2013-02-14 00:01:00,
2013-02-13 19:06:00,33.0,27.8,29.34,SSW,202,2.0,5.0,81,0.00,,,0.00,Weather View 32 v70,2013-02-14 00:06:00,
2013-02-13 19:11:00,33.0,27.8,29.35,South,180,2.0,5.0,81,0.00,,,0.00,Weather View 32 v70,2013-02-14 00:11:00,
2013-02-13 19:16:00,33.0,27.8,29.35,SSE,157,2.0,6.0,81,0.00,,,0.00,Weather View 32 v70,2013-02-14 00:16:00,
2013-02-13 19:21:00,33.0,27.8,29.35,South,180,2.0,6.0,81,0.00,,,0.00,Weather View 32 v70,2013-02-14 00:21:00,
2013-02-13 19:26:00,33.0,28.1,29.35,SSE,157,2.0,6.0,82,0.00,,,0.00,Weather View 32 v70,2013-02-14 00:26:00,
2013-02-13 19:31:00,33.0,27.8,29.35,SSE,157,4.0,6.0,81,0.00,,,0.00,Weather View 32 v70,2013-02-14 00:31:00,
2013-02-13 19:36:00,34.0,28.2,29.35,SSE,157,3.0,6.0,79,0.00,,,0.00,Weather View 32 v70,2013-02-14 00:36:00,
2013-02-13 19:41:00,34.0,28.2,29.35,SW,225,1.0,6.0,79,0.00,,,0.00,Weather View 32 v70,2013-02-14 00:41:00,
2013-02-13 19:46:00,34.0,28.2,29.35,SW,225,0.0,6.0,79,0.00,,,0.00,Weather View 32 v70,2013-02-14 00:46:00,
2013-02-13 19:51:00,33.0,27.2,29.35,SW,225,0.0,6.0,79,0.00,,,0.00,Weather View 32 v70,2013-02-14 00:51:00,
2013-02-13 19:56:00,33.0,27.8,29.35,SSE,157,4.0,6.0,81,0.00,,,0.00,Weather View 32 v70,2013-02-14 00:56:00,
2013-02-13 20:01:00,33.0,27.8,29.35,SSE,157,1.0,6.0,81,0.00,,,0.00,Weather View 32 v70,2013-02-14 01:01:00,
2013-02-13 20:06:00,33.0,27.8,29.34,South,180,5.0,6.0,81,0.00,,,0.00,Weather View 32 v70,2013-02-14 01:06:00,
2013-02-13 20:11:00,33.0,28.1,29.35,SSW,202,1.0,6.0,82,0.00,,,0.00,Weather View 32 v70,2013-02-14 01:11:00,
2013-02-13 20:16:00,33.0,28.7,29.34,SSW,202,1.0,6.0,84,0.00,,,0.00,Weather View 32 v70,2013-02-14 01:16:00,
2013-02-13 20:21:00,33.0,28.7,29.35,South,180,1.0,6.0,84,0.00,,,0.00,Weather View 32 v70,2013-02-14 01:21:00,
2013-02-13 20:26:00,33.0,28.7,29.35,South,180,0.0,6.0,84,0.00,,,0.00,Weather View 32 v70,2013-02-14 01:26:00,
2013-02-13 20:31:00,33.0,29.0,29.36,South,180,0.0,6.0,85,0.00,,,0.00,Weather View 32 v70,2013-02-14 01:31:00,
2013-02-13 20:36:00,33.0,29.3,29.35,WSW,247,0.0,5.0,86,0.00,,,0.00,Weather View 32 v70,2013-02-14 01:36:00,
2013-02-13 20:41:00,33.0,29.3,29.35,WSW,247,0.0,5.0,86,0.00,,,0.00,Weather View 32 v70,2013-02-14 01:41:00,
2013-02-13 20:46:00,33.0,29.6,29.35,SSE,157,1.0,5.0,87,0.00,,,0.00,Weather View 32 v70,2013-02-14 01:46:00,
2013-02-13 20:51:00,33.0,29.8,29.35,WNW,292,0.0,5.0,88,0.00,,,0.00,Weather View 32 v70,2013-02-14 01:51:00,
2013-02-13 20:56:00,33.0,29.8,29.35,WNW,292,0.0,5.0,88,0.00,,,0.00,Weather View 32 v70,2013-02-14 01:56:00,
2013-02-13 21:01:00,32.0,28.8,29.34,WNW,292,0.0,5.0,88,0.00,,,0.00,Weather View 32 v70,2013-02-14 02:01:00,
2013-02-13 21:06:00,32.0,29.7,29.33,North,360,0.0,5.0,91,0.00,,,0.00,Weather View 32 v70,2013-02-14 02:06:00,
2013-02-13 21:11:00,32.0,29.4,29.32,North,360,0.0,4.0,90,0.00,,,0.00,Weather View 32 v70,2013-02-14 02:11:00,
2013-02-13 21:16:00,32.0,29.4,29.32,North,360,0.0,4.0,90,0.00,,,0.00,Weather View 32 v70,2013-02-14 02:16:00,
2013-02-13 21:21:00,32.0,29.4,29.32,North,360,0.0,3.0,90,0.00,,,0.00,Weather View 32 v70,2013-02-14 02:21:00,
2013-02-13 21:26:00,32.0,29.4,29.32,North,360,0.0,3.0,90,0.00,,,0.00,Weather View 32 v70,2013-02-14 02:26:00,
2013-02-13 21:31:00,32.0,29.7,29.32,North,360,0.0,3.0,91,0.00,,,0.00,Weather View 32 v70,2013-02-14 02:31:00,
2013-02-13 21:36:00,31.0,28.7,29.32,North,360,3.0,3.0,91,0.00,,,0.00,Weather View 32 v70,2013-02-14 02:36:00,
2013-02-13 21:41:00,32.0,29.7,29.32,North,360,0.0,3.0,91,0.00,,,0.00,Weather View 32 v70,2013-02-14 02:41:00,
2013-02-13 21:46:00,31.0,28.7,29.29,North,360,0.0,3.0,91,0.00,,,0.00,Weather View 32 v70,2013-02-14 02:46:00,
2013-02-13 21:51:00,31.0,28.7,29.31,North,360,0.0,3.0,91,0.00,,,0.00,Weather View 32 v70,2013-02-14 02:51:00,
2013-02-13 21:56:00,31.0,28.7,29.31,North,360,0.0,3.0,91,0.00,,,0.00,Weather View 32 v70,2013-02-14 02:56:00,
2013-02-13 22:01:00,31.0,28.9,29.31,North,360,0.0,3.0,92,0.00,,,0.00,Weather View 32 v70,2013-02-14 03:01:00,
2013-02-13 22:06:00,31.0,28.9,29.31,NNW,337,0.0,3.0,92,0.00,,,0.00,Weather View 32 v70,2013-02-14 03:06:00,
2013-02-13 22:11:00,31.0,28.9,29.31,NNW,337,0.0,3.0,92,0.00,,,0.00,Weather View 32 v70,2013-02-14 03:11:00,
2013-02-13 22:16:00,31.0,29.2,29.31,NW,315,0.0,3.0,93,0.00,,,0.00,Weather View 32 v70,2013-02-14 03:16:00,
2013-02-13 22:21:00,31.0,29.5,29.31,SSW,202,0.0,3.0,94,0.00,,,0.00,Weather View 32 v70,2013-02-14 03:21:00,
2013-02-13 22:26:00,31.0,29.5,29.32,SE,135,1.0,3.0,94,0.00,,,0.00,Weather View 32 v70,2013-02-14 03:26:00,
2013-02-13 22:31:00,31.0,29.5,29.31,SE,135,0.0,3.0,94,0.00,,,0.00,Weather View 32 v70,2013-02-14 03:31:00,
2013-02-13 22:36:00,31.0,29.5,29.31,ENE,67,2.0,3.0,94,0.00,,,0.00,Weather View 32 v70,2013-02-14 03:36:00,
2013-02-13 22:41:00,31.0,29.5,29.31,NE,45,0.0,4.0,94,0.00,,,0.00,Weather View 32 v70,2013-02-14 03:41:00,
2013-02-13 22:46:00,30.0,28.7,29.30,WNW,292,0.0,4.0,95,0.00,,,0.00,Weather View 32 v70,2013-02-14 03:46:00,
2013-02-13 22:51:00,30.0,28.5,29.30,WNW,292,3.0,4.0,94,0.00,,,0.00,Weather View 32 v70,2013-02-14 03:51:00,
2013-02-13 22:56:00,30.0,28.2,29.30,WNW,292,2.0,4.0,93,0.00,,,0.00,Weather View 32 v70,2013-02-14 03:56:00,
2013-02-13 23:01:00,30.0,28.0,29.30,WNW,292,0.0,4.0,92,0.00,,,0.00,Weather View 32 v70,2013-02-14 04:01:00,
2013-02-13 23:06:00,30.0,28.0,29.31,WNW,292,0.0,4.0,92,0.00,,,0.00,Weather View 32 v70,2013-02-14 04:06:00,
2013-02-13 23:11:00,30.0,27.7,29.31,NNW,337,4.0,4.0,91,0.00,,,0.00,Weather View 32 v70,2013-02-14 04:11:00,
2013-02-13 23:16:00,31.0,28.4,29.31,North,360,4.0,6.0,90,0.00,,,0.00,Weather View 32 v70,2013-02-14 04:16:00,
2013-02-13 23:21:00,31.0,27.6,29.32,NNE,22,4.0,6.0,87,0.00,,,0.00,Weather View 32 v70,2013-02-14 04:21:00,
2013-02-13 23:26:00,31.0,27.6,29.32,NNW,337,1.0,6.0,87,0.00,,,0.00,Weather View 32 v70,2013-02-14 04:26:00,
2013-02-13 23:31:00,31.0,26.4,29.32,NE,45,6.0,6.0,83,0.00,,,0.00,Weather View 32 v70,2013-02-14 04:31:00,
2013-02-13 23:36:00,32.0,25.9,29.32,NE,45,7.0,9.0,78,0.00,,,0.00,Weather View 32 v70,2013-02-14 04:36:00,
2013-02-13 23:41:00,32.0,24.3,29.31,ENE,67,3.0,9.0,73,0.00,,,0.00,Weather View 32 v70,2013-02-14 04:41:00,
2013-02-13 23:46:00,32.0,24.0,29.31,North,360,3.0,9.0,72,0.00,,,0.00,Weather View 32 v70,2013-02-14 04:46:00,
2013-02-13 23:51:00,32.0,24.0,29.31,NE,45,4.0,10.0,72,0.00,,,0.00,Weather View 32 v70,2013-02-14 04:51:00,
2013-02-13 23:56:00,33.0,24.3,29.31,NNE,22,6.0,10.0,70,0.00,,,0.00,Weather View 32 v70,2013-02-14 04:56:00,